| time (UTC) | temp F | wind direction | speed knots | gust knots | rain 1hr in | rain 24hr in | rain mn in | humidity % | barometer mb |
| 20260906163737 | 75 | 112 | 4.3 | 7.8 | 0.00 | 0.00 | 0.00 | 74 | 1020.4 |
| 20260906163231 | 75 | 114 | 4.3 | 7.8 | 0.00 | 0.00 | 0.00 | 76 | 1020.4 |
| 20260906162725 | 75 | 93 | 4.3 | 7.8 | 0.00 | 0.00 | 0.00 | 77 | 1020.4 |
| 20260906162219 | 75 | 101 | 3.5 | 7.8 | 0.00 | 0.00 | 0.00 | 75 | 1020.3 |
| 20260906161713 | 75 | 93 | 3.5 | 8.7 | 0.00 | 0.00 | 0.00 | 74 | 1020.3 |
| 20260906161207 | 75 | 124 | 3.5 | 8.7 | 0.00 | 0.00 | 0.00 | 77 | 1020.3 |
| 20260906160701 | 75 | 88 | 4.3 | 7.8 | 0.00 | 0.00 | 0.00 | 73 | 1020.3 |
| 20260906160155 | 75 | 107 | 5.2 | 8.7 | 0.00 | 0.00 | 0.00 | 75 | 1020.4 |
| 20260906155649 | 75 | 113 | 5.2 | 8.7 | 0.00 | 0.00 | 0.00 | 76 | 1020.3 |
| 20260906155143 | 74 | 111 | 4.3 | 8.7 | 0.00 | 0.00 | 0.00 | 77 | 1020.3 |
| 20260906154637 | 74 | 102 | 3.5 | 8.7 | 0.00 | 0.00 | 0.00 | 75 | 1020.3 |
| 20260906153625 | 74 | 98 | 3.5 | 7.0 | 0.00 | 0.00 | 0.00 | 76 | 1020.4 |
| 20260906153119 | 74 | 90 | 3.5 | 7.0 | 0.00 | 0.00 | 0.00 | 75 | 1020.5 |
| 20260906152613 | 74 | 126 | 2.6 | 7.0 | 0.00 | 0.00 | 0.00 | 75 | 1020.4 |
| 20260906152107 | 74 | 105 | 2.6 | 7.0 | 0.00 | 0.00 | 0.00 | 75 | 1020.4 |
| 20260906151602 | 74 | 108 | 3.5 | 7.0 | 0.00 | 0.00 | 0.00 | 75 | 1020.3 |
| 20260906151055 | 73 | 113 | 2.6 | 7.0 | 0.00 | 0.00 | 0.00 | 76 | 1020.2 |
| 20260906150549 | 73 | 107 | 2.6 | 7.0 | 0.00 | 0.00 | 0.00 | 77 | 1020.2 |
| 20260906150043 | 73 | 109 | 3.5 | 7.0 | 0.00 | 0.00 | 0.00 | 77 | 1020.1 |
| 20260906145536 | 72 | 105 | 3.5 | 7.0 | 0.00 | 0.00 | 0.00 | 77 | 1020.2 |
| 20260906145030 | 72 | 90 | 2.6 | 7.0 | 0.00 | 0.00 | 0.00 | 77 | 1020.3 |
| 20260906144525 | 72 | 78 | 2.6 | 7.0 | 0.00 | 0.00 | 0.00 | 78 | 1020.2 |
| 20260906143513 | 72 | 117 | 1.7 | 6.1 | 0.00 | 0.00 | 0.00 | 77 | 1020.2 |
| 20260906143007 | 71 | 113 | 1.7 | 5.2 | 0.00 | 0.00 | 0.00 | 78 | 1020.2 |
| 20260906142501 | 71 | 88 | 2.6 | 6.1 | 0.00 | 0.00 | 0.00 | 78 | 1020.3 |
| 20260906141955 | 71 | 106 | 2.6 | 6.1 | 0.00 | 0.00 | 0.00 | 78 | 1020.2 |
| 20260906135932 | 71 | 119 | 2.6 | 6.1 | 0.00 | 0.00 | 0.00 | 79 | 1020.0 |
| 20260906134919 | 71 | 111 | 2.6 | 6.1 | 0.00 | 0.00 | 0.00 | 78 | 1020.0 |
| 20260906134413 | 71 | 123 | 1.7 | 6.1 | 0.00 | 0.00 | 0.00 | 79 | 1020.0 |
| 20260906133907 | 71 | 125 | 1.7 | 5.2 | 0.00 | 0.00 | 0.00 | 78 | 1019.9 |
| 20260906133401 | 71 | 70 | 2.6 | 4.3 | 0.00 | 0.00 | 0.00 | 79 | 1019.8 |
| 20260906132855 | 71 | 145 | 1.7 | 3.5 | 0.00 | 0.00 | 0.00 | 79 | 1019.8 |
| 20260906132349 | 71 | 96 | 1.7 | 3.5 | 0.00 | 0.00 | 0.00 | 79 | 1019.8 |
| 20260906131844 | 70 | 110 | 1.7 | 3.5 | 0.00 | 0.00 | 0.00 | 84 | 1020.0 |
| 20260906131337 | 69 | 68 | 0.9 | 2.6 | 0.00 | 0.00 | 0.00 | 86 | 1019.9 |
| 20260906130831 | 68 | 44 | 0.0 | 1.7 | 0.00 | 0.00 | 0.00 | 87 | 1020.0 |
| 20260906130328 | 67 | 44 | 0.0 | 1.7 | 0.00 | 0.00 | 0.00 | 88 | 1020.0 |
| 20260906125828 | 66 | 44 | 0.0 | 1.7 | 0.00 | 0.00 | 0.00 | 91 | 1019.9 |
| 20260906125328 | 65 | 44 | 0.9 | 1.7 | 0.00 | 0.00 | 0.00 | 92 | 1019.7 |
| 20260906124828 | 65 | 44 | 0.0 | 1.7 | 0.00 | 0.00 | 0.00 | 93 | 1019.6 |
| 20260906124326 | 64 | 348 | 0.0 | 0.9 | 0.00 | 0.00 | 0.00 | 93 | 1019.5 |
| 20260906123826 | 64 | 348 | 0.0 | 0.0 | 0.00 | 0.00 | 0.00 | 93 | 1019.5 |
| 20260906123327 | 64 | 348 | 0.0 | 0.0 | 0.00 | 0.00 | 0.00 | 93 | 1019.5 |
| 20260906122826 | 63 | 348 | 0.0 | 0.9 | 0.00 | 0.00 | 0.00 | 94 | 1019.4 |
| 20260906122325 | 63 | 348 | 0.0 | 0.9 | 0.00 | 0.00 | 0.00 | 94 | 1019.4 |
| 20260906120825 | 62 | 348 | 0.0 | 0.9 | 0.00 | 0.00 | 0.00 | 93 | 1019.3 |
| 20260906120324 | 62 | 348 | 0.0 | 0.0 | 0.00 | 0.00 | 0.00 | 93 | 1019.2 |
| 20260906115825 | 62 | 348 | 0.0 | 0.0 | 0.00 | 0.00 | 0.00 | 93 | 1019.1 |
| 20260906115323 | 62 | 348 | 0.0 | 0.0 | 0.00 | 0.00 | 0.00 | 93 | 1019.1 |
| 20260906114823 | 62 | 348 | 0.0 | 0.0 | 0.00 | 0.00 | 0.00 | 93 | 1019.0 |
| 20260906114324 | 61 | 348 | 0.0 | 0.0 | 0.00 | 0.00 | 0.00 | 93 | 1018.9 |
| 20260906113323 | 61 | 348 | 0.0 | 0.0 | 0.00 | 0.00 | 0.00 | 93 | 1018.8 |
| 20260906112825 | 61 | 348 | 0.0 | 0.0 | 0.00 | 0.00 | 0.00 | 93 | 1018.7 |
| 20260906112323 | 61 | 348 | 0.0 | 0.0 | 0.00 | 0.00 | 0.00 | 93 | 1018.7 |
| 20260906111324 | 61 | 348 | 0.0 | 0.0 | 0.00 | 0.00 | 0.00 | 93 | 1018.5 |
| 20260906110827 | 60 | 348 | 0.0 | 0.0 | 0.00 | 0.00 | 0.00 | 93 | 1018.5 |
| 20260906110324 | 61 | 348 | 0.0 | 0.0 | 0.00 | 0.00 | 0.00 | 93 | 1018.4 |
| 20260906105824 | 61 | 348 | 0.0 | 0.0 | 0.00 | 0.00 | 0.00 | 93 | 1018.4 |
| 20260906105321 | 60 | 348 | 0.0 | 0.0 | 0.00 | 0.00 | 0.00 | 93 | 1018.4 |
| 20260906104817 | 60 | 348 | 0.0 | 0.0 | 0.00 | 0.00 | 0.00 | 93 | 1018.4 |
| 20260906104317 | 60 | 348 | 0.0 | 0.0 | 0.00 | 0.00 | 0.00 | 93 | 1018.4 |
| 20260906103316 | 60 | 348 | 0.0 | 0.0 | 0.00 | 0.00 | 0.00 | 93 | 1018.3 |
| 20260906102813 | 60 | 348 | 0.0 | 0.0 | 0.00 | 0.00 | 0.00 | 93 | 1018.2 |
| 20260906102313 | 61 | 348 | 0.0 | 0.0 | 0.00 | 0.00 | 0.00 | 93 | 1018.3 |
| 20260906101811 | 61 | 348 | 0.0 | 0.0 | 0.00 | 0.00 | 0.00 | 93 | 1018.3 |
| 20260906100806 | 61 | 348 | 0.0 | 0.0 | 0.00 | 0.00 | 0.00 | 93 | 1018.4 |
| 20260906100309 | 61 | 348 | 0.0 | 0.9 | 0.00 | 0.00 | 0.00 | 93 | 1018.3 |
| 20260906095803 | 61 | 348 | 0.0 | 0.9 | 0.00 | 0.00 | 0.00 | 93 | 1018.3 |
| 20260906095258 | 61 | 348 | 0.0 | 0.0 | 0.00 | 0.00 | 0.00 | 93 | 1018.3 |
| 20260906094751 | 61 | 348 | 0.0 | 0.0 | 0.00 | 0.00 | 0.00 | 93 | 1018.3 |
| 20260906094245 | 61 | 348 | 0.0 | 0.0 | 0.00 | 0.00 | 0.00 | 93 | 1018.2 |
| 20260906093739 | 61 | 348 | 0.0 | 1.7 | 0.00 | 0.00 | 0.00 | 93 | 1018.2 |
| 20260906093233 | 61 | 348 | 0.0 | 1.7 | 0.00 | 0.00 | 0.00 | 92 | 1018.2 |
| 20260906092727 | 61 | 348 | 0.0 | 1.7 | 0.00 | 0.00 | 0.00 | 92 | 1018.2 |
| 20260906091714 | 62 | 348 | 0.0 | 0.0 | 0.00 | 0.00 | 0.00 | 92 | 1018.1 |
| 20260906091209 | 62 | 348 | 0.0 | 0.9 | 0.00 | 0.00 | 0.00 | 92 | 1018.0 |
| 20260906090703 | 62 | 348 | 0.0 | 0.9 | 0.00 | 0.00 | 0.00 | 92 | 1018.0 |
| 20260906090157 | 62 | 348 | 0.0 | 0.9 | 0.00 | 0.00 | 0.00 | 92 | 1017.9 |
| 20260906085145 | 62 | 348 | 0.0 | 0.0 | 0.00 | 0.00 | 0.00 | 92 | 1018.0 |
| 20260906084639 | 62 | 348 | 0.0 | 0.9 | 0.00 | 0.00 | 0.00 | 92 | 1018.1 |
| 20260906084133 | 62 | 348 | 0.0 | 0.9 | 0.00 | 0.00 | 0.00 | 92 | 1018.1 |
| 20260906083628 | 62 | 348 | 0.0 | 2.6 | 0.00 | 0.00 | 0.00 | 92 | 1018.1 |
| 20260906082615 | 63 | 348 | 0.0 | 1.7 | 0.00 | 0.00 | 0.00 | 92 | 1018.1 |
| 20260906082110 | 63 | 348 | 0.0 | 2.6 | 0.00 | 0.00 | 0.00 | 92 | 1018.2 |
| 20260906081603 | 63 | 348 | 0.9 | 2.6 | 0.00 | 0.00 | 0.00 | 92 | 1018.0 |
| 20260906080551 | 62 | 325 | 0.9 | 3.5 | 0.00 | 0.00 | 0.00 | 92 | 1017.9 |
| 20260906080045 | 62 | 298 | 0.9 | 3.5 | 0.00 | 0.00 | 0.00 | 92 | 1017.9 |
| 20260906075539 | 62 | 333 | 1.7 | 3.5 | 0.00 | 0.00 | 0.00 | 92 | 1017.8 |
| 20260906075032 | 63 | 317 | 1.7 | 3.5 | 0.00 | 0.00 | 0.00 | 92 | 1017.8 |
| 20260906074527 | 63 | 347 | 1.7 | 3.5 | 0.00 | 0.00 | 0.00 | 92 | 1017.8 |
| 20260906074021 | 63 | 337 | 2.6 | 4.3 | 0.00 | 0.00 | 0.00 | 92 | 1017.7 |
| 20260906073515 | 63 | 355 | 1.7 | 4.3 | 0.00 | 0.00 | 0.00 | 92 | 1017.7 |
| 20260906071957 | 63 | 322 | 1.7 | 3.5 | 0.00 | 0.00 | 0.00 | 92 | 1017.5 |
| 20260906071451 | 63 | 346 | 1.7 | 3.5 | 0.00 | 0.00 | 0.00 | 92 | 1017.5 |
| 20260906070945 | 63 | 329 | 1.7 | 2.6 | 0.00 | 0.00 | 0.00 | 92 | 1017.5 |
| 20260906065933 | 63 | 351 | 0.9 | 2.6 | 0.00 | 0.00 | 0.00 | 92 | 1017.5 |
| 20260906064415 | 63 | 351 | 1.7 | 3.5 | 0.00 | 0.00 | 0.00 | 91 | 1017.4 |
| 20260906063403 | 63 | 341 | 0.9 | 2.6 | 0.00 | 0.00 | 0.00 | 91 | 1017.4 |
| 20260906062857 | 64 | 341 | 0.9 | 2.6 | 0.00 | 0.00 | 0.00 | 91 | 1017.4 |
| 20260906062352 | 64 | 355 | 0.9 | 2.6 | 0.00 | 0.00 | 0.00 | 91 | 1017.3 |
| 20260906061845 | 64 | 350 | 1.7 | 3.5 | 0.00 | 0.00 | 0.00 | 91 | 1017.4 |
| 20260906061340 | 64 | 350 | 1.7 | 3.5 | 0.00 | 0.00 | 0.00 | 91 | 1017.4 |
| 20260906060833 | 64 | 350 | 1.7 | 3.5 | 0.00 | 0.00 | 0.00 | 91 | 1017.4 |
| 20260906060327 | 63 | 344 | 1.7 | 2.6 | 0.00 | 0.00 | 0.00 | 91 | 1017.4 |
| 20260906055314 | 63 | 0 | 0.9 | 1.7 | 0.00 | 0.00 | 0.00 | 90 | 1017.3 |
| 20260906054809 | 64 | 0 | 0.0 | 1.7 | 0.00 | 0.00 | 0.00 | 90 | 1017.3 |
| 20260906054303 | 64 | 0 | 0.0 | 1.7 | 0.00 | 0.00 | 0.00 | 90 | 1017.2 |
| 20260906053251 | 64 | 0 | 1.7 | 2.6 | 0.00 | 0.00 | 0.00 | 90 | 1017.1 |
| 20260906052748 | 64 | 355 | 1.7 | 3.5 | 0.00 | 0.00 | 0.00 | 90 | 1017.1 |
| 20260906052249 | 64 | 355 | 0.9 | 3.5 | 0.00 | 0.00 | 0.00 | 90 | 1017.1 |
| 20260906051245 | 64 | 355 | 1.7 | 2.6 | 0.00 | 0.00 | 0.00 | 90 | 1017.2 |
| 20260906050743 | 64 | 355 | 0.9 | 2.6 | 0.00 | 0.00 | 0.00 | 90 | 1017.2 |
| 20260906050243 | 64 | 0 | 0.9 | 2.6 | 0.00 | 0.00 | 0.00 | 90 | 1017.3 |
| 20260906045743 | 64 | 344 | 1.7 | 4.3 | 0.00 | 0.00 | 0.00 | 90 | 1017.3 |
| 20260906045242 | 64 | 344 | 1.7 | 4.3 | 0.00 | 0.00 | 0.00 | 90 | 1017.3 |
| 20260906044244 | 64 | 345 | 1.7 | 3.5 | 0.00 | 0.00 | 0.00 | 90 | 1017.3 |
| 20260906043744 | 64 | 345 | 2.6 | 3.5 | 0.00 | 0.00 | 0.00 | 90 | 1017.2 |
| 20260906043240 | 64 | 347 | 2.6 | 5.2 | 0.00 | 0.00 | 0.00 | 90 | 1017.3 |
| 20260906042741 | 64 | 333 | 1.7 | 5.2 | 0.00 | 0.00 | 0.00 | 90 | 1017.3 |
| 20260906042241 | 64 | 346 | 1.7 | 4.3 | 0.00 | 0.00 | 0.00 | 90 | 1017.2 |
| 20260906041743 | 64 | 355 | 1.7 | 3.5 | 0.00 | 0.00 | 0.00 | 90 | 1017.1 |
| 20260906041238 | 64 | 346 | 1.7 | 4.3 | 0.00 | 0.00 | 0.00 | 90 | 1017.1 |
| 20260906040237 | 64 | 348 | 2.6 | 4.3 | 0.00 | 0.00 | 0.00 | 91 | 1017.0 |
| 20260906035737 | 64 | 0 | 1.7 | 3.5 | 0.00 | 0.00 | 0.00 | 91 | 1017.0 |
| 20260906035238 | 63 | 348 | 1.7 | 3.5 | 0.00 | 0.00 | 0.00 | 91 | 1017.1 |
| 20260906034737 | 63 | 348 | 1.7 | 2.6 | 0.00 | 0.00 | 0.00 | 91 | 1017.0 |
| 20260906034238 | 63 | 348 | 1.7 | 2.6 | 0.00 | 0.00 | 0.00 | 91 | 1017.0 |
| 20260906033737 | 63 | 348 | 1.7 | 2.6 | 0.00 | 0.00 | 0.00 | 91 | 1017.0 |
| 20260906033238 | 63 | 348 | 0.9 | 2.6 | 0.00 | 0.00 | 0.00 | 91 | 1017.0 |
| 20260906031732 | 64 | 348 | 1.7 | 3.5 | 0.00 | 0.00 | 0.00 | 90 | 1016.9 |
| 20260906031234 | 64 | 348 | 1.7 | 3.5 | 0.00 | 0.00 | 0.00 | 89 | 1016.9 |
| 20260906030734 | 64 | 348 | 1.7 | 3.5 | 0.00 | 0.00 | 0.00 | 89 | 1016.9 |
| 20260906030232 | 65 | 342 | 0.9 | 3.5 | 0.00 | 0.00 | 0.00 | 89 | 1017.0 |
| 20260906025734 | 65 | 355 | 1.7 | 3.5 | 0.00 | 0.00 | 0.00 | 88 | 1017.0 |
| 20260906025232 | 65 | 355 | 1.7 | 3.5 | 0.00 | 0.00 | 0.00 | 89 | 1016.9 |
| 20260906024728 | 64 | 355 | 1.7 | 3.5 | 0.00 | 0.00 | 0.00 | 89 | 1016.9 |
| 20260906024229 | 64 | 340 | 1.7 | 2.6 | 0.00 | 0.00 | 0.00 | 89 | 1017.0 |
| 20260906023728 | 64 | 24 | 1.7 | 3.5 | 0.00 | 0.00 | 0.00 | 90 | 1017.0 |
| 20260906023223 | 64 | 349 | 1.7 | 3.5 | 0.00 | 0.00 | 0.00 | 90 | 1016.9 |
| 20260906022211 | 64 | 346 | 0.9 | 3.5 | 0.00 | 0.00 | 0.00 | 89 | 1016.9 |
| 20260906021704 | 64 | 5 | 0.9 | 2.6 | 0.00 | 0.00 | 0.00 | 89 | 1016.9 |
| 20260906021157 | 65 | 5 | 0.9 | 2.6 | 0.00 | 0.00 | 0.00 | 89 | 1016.9 |
| 20260906020651 | 65 | 335 | 1.7 | 2.6 | 0.00 | 0.00 | 0.00 | 89 | 1016.9 |
| 20260906020145 | 65 | 335 | 1.7 | 3.5 | 0.00 | 0.00 | 0.00 | 90 | 1017.0 |
| 20260906015639 | 65 | 351 | 1.7 | 3.5 | 0.00 | 0.00 | 0.00 | 90 | 1017.0 |
| 20260906015133 | 65 | 331 | 1.7 | 3.5 | 0.00 | 0.00 | 0.00 | 90 | 1017.0 |
| 20260906014627 | 65 | 330 | 1.7 | 3.5 | 0.00 | 0.00 | 0.00 | 89 | 1016.9 |
| 20260906013615 | 66 | 355 | 0.9 | 2.6 | 0.00 | 0.00 | 0.00 | 88 | 1016.7 |
| 20260906013109 | 66 | 355 | 0.9 | 2.6 | 0.00 | 0.00 | 0.00 | 88 | 1016.6 |
| 20260906012057 | 67 | 14 | 0.9 | 2.6 | 0.00 | 0.00 | 0.00 | 87 | 1016.6 |
| 20260906011551 | 67 | 0 | 1.7 | 3.5 | 0.00 | 0.00 | 0.00 | 87 | 1016.6 |
| 20260906011045 | 67 | 28 | 0.9 | 3.5 | 0.00 | 0.00 | 0.00 | 86 | 1016.6 |
| 20260906005527 | 68 | 346 | 0.9 | 5.2 | 0.00 | 0.00 | 0.00 | 86 | 1016.5 |
| 20260906005021 | 68 | 27 | 1.7 | 5.2 | 0.00 | 0.00 | 0.00 | 85 | 1016.4 |
| 20260906004515 | 68 | 336 | 1.7 | 4.3 | 0.00 | 0.00 | 0.00 | 85 | 1016.5 |
| 20260906004009 | 68 | 5 | 1.7 | 4.3 | 0.00 | 0.00 | 0.00 | 84 | 1016.4 |
| 20260906003503 | 68 | 12 | 0.9 | 3.5 | 0.00 | 0.00 | 0.00 | 84 | 1016.5 |
| 20260906002957 | 68 | 69 | 1.7 | 7.0 | 0.00 | 0.00 | 0.00 | 84 | 1016.4 |
| 20260906001945 | 68 | 38 | 1.7 | 5.2 | 0.00 | 0.00 | 0.00 | 85 | 1016.5 |
| 20260906001438 | 69 | 42 | 2.6 | 7.0 | 0.00 | 0.00 | 0.00 | 85 | 1016.5 |
| 20260906000427 | 69 | 22 | 2.6 | 8.7 | 0.00 | 0.00 | 0.00 | 84 | 1016.4 |
| 20260905235921 | 69 | 56 | 2.6 | 7.0 | 0.00 | 0.00 | 0.00 | 84 | 1016.5 |
| 20260905235415 | 69 | 31 | 2.6 | 7.0 | 0.00 | 0.00 | 0.00 | 84 | 1016.6 |
| 20260905234909 | 69 | 21 | 2.6 | 7.0 | 0.00 | 0.00 | 0.00 | 83 | 1016.6 |
| 20260905234404 | 69 | 24 | 1.7 | 5.2 | 0.00 | 0.00 | 0.00 | 83 | 1016.7 |
| 20260905233857 | 70 | 11 | 2.6 | 6.1 | 0.00 | 0.00 | 0.00 | 82 | 1016.6 |
| 20260905233351 | 70 | 344 | 2.6 | 8.7 | 0.00 | 0.00 | 0.00 | 82 | 1016.6 |
| 20260905232845 | 70 | 56 | 3.5 | 8.7 | 0.00 | 0.00 | 0.00 | 81 | 1016.5 |
| 20260905232338 | 70 | 342 | 2.6 | 7.8 | 0.00 | 0.00 | 0.00 | 81 | 1016.5 |
| 20260905231832 | 71 | 314 | 2.6 | 7.0 | 0.00 | 0.00 | 0.00 | 81 | 1016.6 |
| 20260905231327 | 71 | 51 | 2.6 | 7.0 | 0.00 | 0.00 | 0.00 | 80 | 1016.6 |
| 20260905230821 | 71 | 65 | 2.6 | 7.8 | 0.00 | 0.00 | 0.00 | 80 | 1016.5 |
| 20260905225809 | 71 | 42 | 3.5 | 8.7 | 0.00 | 0.00 | 0.00 | 80 | 1016.4 |
| 20260905225305 | 71 | 61 | 3.5 | 8.7 | 0.00 | 0.00 | 0.00 | 80 | 1016.4 |
| 20260905224757 | 71 | 50 | 3.5 | 9.6 | 0.00 | 0.00 | 0.00 | 80 | 1016.4 |
| 20260905224251 | 71 | 55 | 3.5 | 9.6 | 0.00 | 0.00 | 0.00 | 80 | 1016.4 |
| 20260905223745 | 72 | 9 | 3.5 | 9.6 | 0.00 | 0.00 | 0.00 | 80 | 1016.3 |
| 20260905223239 | 72 | 11 | 3.5 | 9.6 | 0.00 | 0.00 | 0.00 | 80 | 1016.3 |
| 20260905222227 | 71 | 62 | 2.6 | 10.4 | 0.00 | 0.00 | 0.00 | 80 | 1016.3 |
| 20260905221721 | 72 | 11 | 3.5 | 9.6 | 0.00 | 0.00 | 0.00 | 80 | 1016.3 |
| 20260905221215 | 72 | 42 | 3.5 | 9.6 | 0.00 | 0.00 | 0.00 | 80 | 1016.3 |
| 20260905220709 | 72 | 44 | 3.5 | 10.4 | 0.00 | 0.00 | 0.00 | 80 | 1016.3 |
| 20260905220203 | 72 | 14 | 3.5 | 10.4 | 0.00 | 0.00 | 0.00 | 80 | 1016.3 |
| 20260905215657 | 72 | 55 | 2.6 | 7.0 | 0.00 | 0.00 | 0.00 | 80 | 1016.3 |
| 20260905215154 | 73 | 70 | 3.5 | 7.8 | 0.00 | 0.00 | 0.00 | 80 | 1016.3 |
| 20260905214654 | 72 | 54 | 3.5 | 7.8 | 0.00 | 0.00 | 0.00 | 81 | 1016.4 |
| 20260905214153 | 72 | 83 | 3.5 | 9.6 | 0.00 | 0.00 | 0.00 | 80 | 1016.5 |
| 20260905213654 | 72 | 46 | 3.5 | 9.6 | 0.00 | 0.00 | 0.00 | 80 | 1016.4 |
| 20260905213154 | 72 | 47 | 2.6 | 7.0 | 0.00 | 0.00 | 0.00 | 80 | 1016.4 |
| 20260905212654 | 72 | 68 | 2.6 | 7.0 | 0.00 | 0.00 | 0.00 | 81 | 1016.3 |
| 20260905211152 | 72 | 42 | 2.6 | 7.0 | 0.00 | 0.00 | 0.00 | 82 | 1016.3 |
| 20260905210652 | 72 | 34 | 2.6 | 7.0 | 0.00 | 0.00 | 0.00 | 82 | 1016.3 |
| 20260905210152 | 72 | 34 | 2.6 | 6.1 | 0.00 | 0.00 | 0.00 | 82 | 1016.3 |
| 20260905205652 | 72 | 68 | 2.6 | 7.8 | 0.00 | 0.00 | 0.00 | 82 | 1016.3 |
| 20260905205151 | 72 | 34 | 2.6 | 8.7 | 0.00 | 0.00 | 0.00 | 83 | 1016.3 |
| 20260905204651 | 72 | 53 | 2.6 | 8.7 | 0.00 | 0.00 | 0.00 | 83 | 1016.3 |
| 20260905204153 | 71 | 35 | 3.5 | 8.7 | 0.00 | 0.00 | 0.00 | 83 | 1016.4 |
| 20260905203652 | 72 | 40 | 3.5 | 8.7 | 0.00 | 0.00 | 0.00 | 82 | 1016.3 |
| 20260905203152 | 72 | 90 | 2.6 | 8.7 | 0.00 | 0.00 | 0.00 | 82 | 1016.2 |
| 20260905202656 | 72 | 58 | 2.6 | 8.7 | 0.00 | 0.00 | 0.00 | 83 | 1016.2 |
| 20260905202153 | 71 | 64 | 3.5 | 10.4 | 0.00 | 0.00 | 0.00 | 83 | 1016.3 |
| 20260905201653 | 71 | 72 | 2.6 | 10.4 | 0.00 | 0.00 | 0.00 | 83 | 1016.3 |
| 20260905201152 | 71 | 34 | 2.6 | 7.0 | 0.00 | 0.00 | 0.00 | 85 | 1016.3 |
| 20260905200652 | 71 | 38 | 3.5 | 7.0 | 0.00 | 0.00 | 0.00 | 85 | 1016.2 |
| 20260905200153 | 71 | 47 | 3.5 | 7.8 | 0.00 | 0.00 | 0.00 | 85 | 1016.3 |
| 20260905195653 | 71 | 43 | 3.5 | 7.8 | 0.00 | 0.00 | 0.00 | 85 | 1016.3 |
| 20260905195153 | 71 | 19 | 3.5 | 8.7 | 0.00 | 0.00 | 0.00 | 85 | 1016.3 |
| 20260905194653 | 71 | 30 | 2.6 | 8.7 | 0.00 | 0.00 | 0.00 | 85 | 1016.4 |
| 20260905194153 | 71 | 348 | 2.6 | 7.0 | 0.00 | 0.00 | 0.00 | 85 | 1016.4 |
| 20260905193652 | 71 | 20 | 3.5 | 7.0 | 0.00 | 0.00 | 0.00 | 85 | 1016.4 |
| 20260905193152 | 71 | 52 | 2.6 | 8.7 | 0.00 | 0.00 | 0.00 | 85 | 1016.4 |
| 20260905192653 | 71 | 29 | 2.6 | 8.7 | 0.00 | 0.00 | 0.00 | 85 | 1016.4 |
| 20260905192152 | 71 | 34 | 2.6 | 7.8 | 0.00 | 0.00 | 0.00 | 85 | 1016.3 |
| 20260905191651 | 71 | 24 | 2.6 | 7.8 | 0.00 | 0.00 | 0.00 | 85 | 1016.3 |
| 20260905191152 | 71 | 76 | 2.6 | 7.8 | 0.00 | 0.00 | 0.00 | 85 | 1016.4 |
| 20260905190646 | 71 | 36 | 2.6 | 8.7 | 0.00 | 0.00 | 0.00 | 85 | 1016.3 |
| 20260905190140 | 71 | 89 | 2.6 | 8.7 | 0.00 | 0.00 | 0.00 | 86 | 1016.4 |
| 20260905185641 | 71 | 78 | 3.5 | 8.7 | 0.00 | 0.00 | 0.00 | 86 | 1016.4 |
| 20260905185141 | 71 | 327 | 2.6 | 8.7 | 0.00 | 0.00 | 0.00 | 86 | 1016.4 |
| 20260905184640 | 72 | 41 | 2.6 | 8.7 | 0.00 | 0.00 | 0.00 | 85 | 1016.4 |
| 20260905184137 | 72 | 63 | 2.6 | 7.8 | 0.00 | 0.00 | 0.00 | 85 | 1016.5 |
| 20260905183638 | 72 | 0 | 2.6 | 7.8 | 0.00 | 0.00 | 0.00 | 85 | 1016.5 |
| 20260905183137 | 71 | 355 | 2.6 | 9.6 | 0.00 | 0.00 | 0.00 | 85 | 1016.4 |
| 20260905182638 | 71 | 67 | 3.5 | 9.6 | 0.00 | 0.00 | 0.00 | 85 | 1016.5 |
| 20260905182135 | 71 | 342 | 3.5 | 9.6 | 0.00 | 0.00 | 0.00 | 85 | 1016.3 |
| 20260905181635 | 71 | 74 | 4.3 | 10.4 | 0.00 | 0.00 | 0.00 | 85 | 1016.4 |
| 20260905181136 | 71 | 17 | 3.5 | 10.4 | 0.00 | 0.00 | 0.00 | 85 | 1016.4 |
| 20260905175632 | 72 | 101 | 3.5 | 7.8 | 0.00 | 0.00 | 0.00 | 85 | 1016.3 |
| 20260905174632 | 71 | 26 | 2.6 | 7.8 | 0.00 | 0.00 | 0.00 | 86 | 1016.3 |
| 20260905174132 | 71 | 50 | 2.6 | 7.8 | 0.00 | 0.00 | 0.00 | 86 | 1016.3 |
| 20260905173631 | 71 | 349 | 3.5 | 8.7 | 0.00 | 0.00 | 0.00 | 86 | 1016.2 |
| 20260905173132 | 71 | 50 | 2.6 | 8.7 | 0.00 | 0.00 | 0.00 | 86 | 1016.2 |
| 20260905172626 | 71 | 355 | 2.6 | 7.8 | 0.00 | 0.00 | 0.00 | 86 | 1016.2 |
| 20260905172120 | 72 | 19 | 2.6 | 8.7 | 0.00 | 0.00 | 0.00 | 87 | 1016.3 |
| 20260905171614 | 71 | 35 | 2.6 | 8.7 | 0.00 | 0.00 | 0.00 | 87 | 1016.3 |
| 20260905171108 | 71 | 17 | 3.5 | 7.8 | 0.00 | 0.00 | 0.00 | 87 | 1016.3 |
| 20260905170602 | 71 | 44 | 2.6 | 7.8 | 0.00 | 0.00 | 0.00 | 87 | 1016.3 |
| 20260905165551 | 71 | 73 | 1.7 | 6.1 | 0.00 | 0.00 | 0.00 | 87 | 1016.3 |
| 20260905164538 | 71 | 41 | 1.7 | 5.2 | 0.00 | 0.00 | 0.00 | 87 | 1016.3 |
| 20260905164032 | 72 | 44 | 1.7 | 5.2 | 0.00 | 0.00 | 0.00 | 87 | 1016.3 |